Regional Weather Roundup
Issued by NWS Goodland, KS

Home | Current Version | Previous Version | Graphics & Text | Print | Product List | Glossary On
Versions: 1 2 3 4 5 6 7 8 9 10 11 12 13 14 15 16 17 18 19 20 21 22 23 24 25 26 27 28 29 30 31 32 33 34 35 36 37 38 39 40 41 42 43 44 45 46 47 48 49 50
000
ASUS43 KGLD 062208
RWRGLD

GOODLAND FORECAST AREA HOURLY WEATHER ROUNDUP
NATIONAL WEATHER SERVICE GOODLAND KS
400 PM MDT WED MAY 06 2015

...OFFICIAL OBSERVATIONS...

CITY           SKY/WX    TMP DP  RH WIND       PRES   REMARKS
GOODLAND KS    PTSUNNY   62  57  83 S17       29.62F
HILL CITY KS   PTSUNNY   74  54  49 SW13G30   29.59F
IMPERIAL NEB   PTSUNNY   61  53  75 S10       29.58F
MCCOOK NEB     MOSUNNY   69  53  56 SW14      29.57F
AKRON CO       CLOUDY    60  56  86 W14       29.63F
BURLINGTON CO  PTSUNNY   62  53  72 SW15      29.65F
LIMON CO       PTSUNNY   62  45  53 W10       29.71S
$$

...UNOFFICIAL OBSERVATIONS...

CITY           SKY/WX    TMP DP  RH WIND       PRES   REMARKS
COLBY KS       MOSUNNY   68  59  73 S16       29.62F
GOVE KS          N/A     74  32  21 MISG        N/A
LENORA KS        N/A     71  32  23 MISG        N/A
NORTON KS      MOSUNNY   70  52  52 SW16G25   29.58S
SHARON SPRINGS   N/A     70  56  60 MISG        N/A
TRENTON NEB      N/A     68  32  26 SW12        N/A
KIT CARSON CO    N/A     65  53  65 MISG        N/A
YUMA CO          N/A     56  54  92 W14         N/A
$$



USA.gov is the U.S. government's official web portal to all federal, state and local government web resources and services.